Theta_e
313 313 313 313 313 313 314 314 315 315 316 316 315 314 313 315 315 315 316 316 315 312 311 311 311 311 310 310 310 309 310 310 309 310 311 312 314 316 317 317 317 318 317 317
313 313 314 315 316 315 315 314 315 315 316 315 314 313 314 314 314 316 315 315 314 311 311 310 309 309 309 308 308 308 308 308 308 308 310 310 310 312 313 314 314 314 314 315
315 316 316 315 315 315 315 315 315 316 314 314 313 314 314 316 317 315 314 312 309 309 309 308 308 308 308 309 309 309 308 307 307 307 307 307 307 308 309 309 309 310 309 310
317 315 314 315 316 315 316 314 313 313 313 315 314 315 315 315 315 310 311 308 307 306 306 306 306 307 308 307 308 308 308 308 308 308 308 307 306 306 306 307 306 306 306 306
318 313 312 313 314 314 314 312 312 312 312 313 314 314 314 314 313 309 308 307 305 304 304 303 304 305 305 306 306 306 307 307 307 307 307 306 305 305 306 306 305 305 305 305
312 310 310 312 312 312 310 312 312 312 312 315 315 315 316 314 312 309 308 307 306 304 303 303 303 304 304 305 305 306 306 307 306 305 305 305 305 305 305 304 304 304 303 304
314 312 311 311 311 310 310 312 316 318 315 317 316 315 316 315 314 309 308 306 305 304 302 301 300 300 300 300 300 300 302 303 304 305 305 306 305 304 303 304 304 304 303 302
315 314 312 310 311 315 312 315 318 319 318 318 314 315 316 311 309 308 307 305 303 301 300 298 297 297 297 297 297 297 297 296 296 296 298 300 301 302 302 302 302 302 303 303
313 314 311 311 312 313 314 314 313 314 307 311 314 314 313 312 309 308 305 303 301 299 298 297 296 295 294 294 294 293 294 293 293 292 292 292 293 295 296 298 298 299 300 301
313 315 315 309 310 310 311 310 313 313 315 310 312 311 311 312 309 305 304 302 300 298 297 295 294 293 292 292 291 291 290 290 290 291 291 290 290 290 291 292 293 294 296 297
312 313 314 312 313 312 310 311 311 312 313 315 314 311 310 308 304 302 302 301 299 297 296 294 293 292 292 292 290 289 289 289 289 289 289 289 289 288 288 288 288 288 290 293
312 314 311 312 310 309 309 309 310 313 315 312 313 313 309 304 302 302 300 299 298 297 295 293 291 291 291 291 290 289 289 288 288 288 288 288 287 287 288 287 287 287 287 287
311 310 306 303 305 309 310 309 310 308 310 311 312 312 308 305 301 300 300 298 296 293 293 294 292 290 290 289 289 289 288 288 288 287 287 287 287 287 287 287 287 286 286 286
309 308 306 306 305 308 308 307 306 306 306 305 306 306 307 305 303 298 297 296 294 292 291 291 293 291 289 289 289 289 288 288 288 288 287 287 286 286 286 286 287 286 286 286
305 306 307 307 306 304 302 302 302 302 301 302 301 301 301 301 300 295 293 292 291 291 291 291 291 290 290 289 289 288 288 288 288 288 288 288 287 286 286 286 286 286 286 286
300 298 299 294 300 300 300 300 300 300 301 301 301 300 299 294 294 292 291 290 290 290 290 290 290 290 289 289 289 289 288 288 287 287 287 287 287 287 286 286 286 286 286 286
298 296 293 292 298 294 292 295 296 297 297 297 297 295 293 293 292 291 290 290 290 290 290 290 289 289 289 289 289 289 289 288 287 286 286 286 285 284 284 284 284 285 285 285
294 291 293 288 287 289 293 294 294 294 294 294 294 292 292 291 291 290 290 290 290 290 290 289 289 289 289 289 289 288 287 287 285 284 283 283 283 283 283 283 282 282 283 283
294 295 290 286 285 291 293 293 292 293 291 291 292 292 293 291 290 289 290 290 290 289 289 289 289 288 288 287 286 286 285 282 281 281 281 281 281 281 281 281 281 281 281 281
291 293 293 286 287 285 289 290 291 290 287 291 292 289 290 290 288 289 291 290 289 289 288 288 287 287 286 285 283 282 280 279 278 277 276 276 277 277 278 278 279 279 280 279
286 286 292 292 292 289 292 290 291 287 288 292 290 290 291 288 289 290 290 289 288 288 287 287 286 285 283 281 280 279 278 277 274 273 273 272 271 272 272 273 274 275 276 275
288 286 285 285 286 291 292 290 290 291 291 291 290 290 290 290 290 290 289 288 287 287 286 285 283 282 281 279 278 277 275 274 273 271 269 267 266 266 266 266 266 266 268 269
288 289 287 288 287 292 291 290 291 291 290 290 290 290 290 290 289 288 287 286 286 285 283 281 280 280 279 277 274 273 272 271 269 267 266 265 265 265 265 264 264 264 264 265
289 291 288 288 290 290 291 291 291 291 290 290 290 290 289 288 287 286 285 284 283 281 280 280 279 278 277 275 273 272 271 268 267 265 265 264 264 265 265 264 264 263 263 264
290 290 288 289 290 291 291 291 291 290 290 290 290 289 288 287 286 284 283 282 280 280 279 277 276 276 275 273 272 271 269 267 265 264 264 264 264 263 263 263 263 263 264 264
291 291 290 290 291 290 291 291 291 291 290 289 289 288 286 286 284 282 281 280 279 278 276 276 275 273 273 272 272 270 268 264 263 263 263 263 263 263 263 263 263 265 265 265
Wind_Speed
10 4 7 11 11 14 8 10 12 9 9 12 10 9 8 24 27 22 21 11 7 28 26 17 16 14 13 12 11 10 6 2 4 5 7 13 20 22 24 26 29 31 33 34
3 7 12 9 8 8 7 11 13 9 6 6 9 12 15 17 19 14 5 4 14 28 18 15 17 18 19 20 18 16 11 6 4 3 6 7 9 10 15 20 23 24 29 33
11 8 11 7 6 9 10 9 10 13 7 6 8 8 10 11 14 15 10 18 29 24 18 16 19 21 21 21 20 20 19 15 9 6 3 5 6 9 13 14 18 22 23 25
10 3 3 8 8 8 12 5 3 4 3 3 6 5 5 14 1 16 25 26 24 21 19 17 18 20 20 22 20 18 17 16 13 11 9 8 7 9 10 14 16 17 18 19
2 5 4 5 6 2 2 2 3 4 5 5 7 4 6 8 12 9 16 23 22 19 19 19 20 20 21 21 21 20 20 19 19 18 15 13 12 12 14 14 13 13 17 23
11 2 3 4 3 2 3 2 6 6 3 2 11 8 5 3 9 7 15 21 19 18 17 17 17 17 18 18 17 17 17 17 17 18 17 17 17 17 16 15 15 15 15 17
6 12 5 2 2 2 2 1 3 2 2 5 10 6 5 5 2 13 16 20 18 17 15 15 17 18 20 22 22 20 18 15 15 15 15 15 17 19 19 19 19 19 18 18
6 7 10 7 5 2 5 2 3 5 2 8 7 5 5 6 23 27 25 21 16 15 13 13 15 15 15 17 16 19 18 18 19 16 13 13 14 15 16 17 20 22 23 23
4 3 4 4 3 1 3 3 2 2 1 2 5 6 7 6 13 18 19 17 14 11 10 12 14 15 16 17 20 18 19 19 20 21 22 22 20 20 19 17 17 18 20 22
2 5 6 4 3 1 2 3 3 1 3 5 7 3 5 7 10 9 10 11 8 8 10 10 12 13 14 16 19 21 22 23 24 25 26 26 27 25 22 21 21 20 21 23
3 1 5 7 3 3 0 2 4 3 4 7 10 6 7 11 10 8 7 3 7 11 13 15 16 16 15 17 20 21 24 26 27 28 28 27 27 27 27 27 26 25 24 24
4 2 4 7 8 11 13 12 11 5 4 4 4 9 9 11 14 12 3 1 3 6 8 8 11 14 16 19 22 24 25 27 28 29 30 31 32 32 31 30 30 30 30 27
1 1 3 9 3 6 5 3 2 4 1 12 10 13 7 9 8 7 4 2 2 4 7 10 10 11 16 20 21 23 25 27 29 31 32 33 34 35 37 38 35 33 32 32
4 3 5 9 8 4 4 7 8 1 5 11 16 21 17 19 17 7 6 3 3 6 10 11 13 13 17 17 19 22 24 28 28 30 32 34 35 37 40 42 42 41 39 38
1 4 6 10 9 4 6 14 18 14 16 11 24 21 21 15 11 7 8 11 11 13 14 14 14 17 20 18 19 21 22 26 31 35 39 40 38 39 40 43 44 46 45 43
2 3 2 5 6 8 13 20 15 18 19 17 18 22 11 9 6 8 11 11 13 15 14 14 17 18 19 23 27 24 23 24 25 29 36 45 45 43 44 45 47 48 49 49
5 3 2 6 2 5 9 16 19 17 18 15 16 9 3 4 4 5 10 14 18 18 19 22 24 23 26 29 28 30 31 30 34 34 38 38 41 47 48 47 46 47 48 50
4 5 3 4 4 2 8 5 3 5 6 3 1 3 4 2 2 12 17 20 15 22 27 28 30 30 30 30 32 34 35 39 41 41 38 38 40 42 44 47 51 55 54 53
10 5 2 3 5 7 16 4 3 3 5 4 6 2 4 1 17 20 17 15 19 21 23 24 26 31 36 39 38 41 45 45 41 37 37 38 38 41 44 47 50 51 54 59
1 6 5 2 4 8 5 3 7 5 4 1 8 4 0 8 5 9 15 17 17 21 24 27 32 37 40 42 43 46 51 54 51 41 36 34 35 36 38 39 40 43 47 54
3 1 11 12 8 6 4 11 7 4 7 10 9 10 10 5 16 24 19 20 21 23 29 31 35 38 40 43 48 54 55 54 46 45 50 50 50 53 54 54 54 53 49 43
6 6 4 1 3 8 3 8 6 5 7 7 10 14 15 19 20 19 20 23 26 31 32 34 38 41 44 47 50 52 52 53 56 57 56 55 54 51 48 47 48 49 50 55
2 7 4 8 5 4 9 12 13 17 18 25 26 27 18 19 21 22 24 25 29 30 32 33 38 44 47 46 44 48 51 53 54 54 54 52 50 47 44 43 42 42 39 41
5 15 3 2 6 18 29 28 27 27 29 30 26 26 24 19 20 23 24 26 27 28 31 36 41 45 46 44 44 46 48 49 49 49 48 47 46 46 44 42 41 39 37 38
9 4 7 6 14 24 27 30 32 33 31 30 29 25 20 19 21 22 23 25 26 29 33 36 38 40 42 43 45 45 44 43 42 43 44 44 45 45 45 44 42 39 39 39
21 19 10 10 20 18 22 27 24 22 18 19 22 21 19 20 22 22 24 24 26 31 33 34 34 36 39 42 44 43 40 38 40 42 43 42 43 44 44 45 46 41 36 36
Wind_Direction
189 205 207 229 232 239 275 280 282 283 293 280 280 294 295 271 282 284 295 286 100 91 84 77 70 71 74 75 79 85 100 17 318 288 266 255 251 257 260 259 258 259 263 264
136 233 235 273 290 296 280 288 286 275 278 323 305 295 283 282 275 273 69 82 112 93 83 69 69 65 64 63 63 59 62 76 72 26 319 304 280 273 266 271 275 272 268 267
227 253 323 294 269 281 264 263 279 294 318 295 279 272 259 274 265 96 64 89 89 89 80 71 68 62 60 58 53 48 45 41 40 33 18 318 300 275 280 279 275 277 279 275
256 213 268 277 252 250 274 270 308 323 0 262 39 283 305 281 78 81 80 76 75 79 81 75 67 63 55 50 47 47 42 37 36 22 5 351 332 321 316 301 298 298 294 287
277 159 200 235 235 175 221 45 316 270 263 311 250 251 246 221 96 81 78 77 75 74 71 60 54 53 50 47 44 42 37 33 28 22 18 7 348 325 313 306 301 286 293 298
256 97 288 241 49 133 56 305 260 242 214 252 241 195 309 69 137 122 105 92 84 73 62 56 46 40 39 33 24 20 16 14 11 10 11 11 6 354 345 332 322 312 296 294
302 219 186 229 259 98 118 319 305 320 178 205 29 2 229 106 102 139 117 101 86 75 63 52 45 28 20 17 11 9 8 1 355 348 341 344 345 343 342 344 340 330 317 300
277 296 155 166 232 114 184 226 186 243 252 291 2 252 264 74 92 98 101 96 79 64 50 45 35 30 22 14 12 10 13 7 4 3 352 357 342 333 330 332 330 329 326 318
297 264 19 180 95 133 85 177 353 288 307 0 216 246 277 113 89 91 89 77 69 60 43 27 17 19 14 9 10 10 10 7 360 360 2 3 357 354 352 343 332 322 318 319
331 298 244 116 134 199 140 350 306 250 241 233 263 261 234 47 110 90 68 55 38 19 18 11 7 9 10 11 7 5 1 358 353 351 352 351 348 348 347 344 343 337 327 320
54 249 275 355 193 240 356 251 203 238 235 259 272 266 109 106 87 84 83 62 348 341 344 343 348 354 360 358 359 359 355 351 346 344 341 339 338 336 337 340 342 340 333 328
41 211 260 237 308 300 287 274 271 252 248 221 235 261 82 107 118 104 93 157 326 325 333 339 340 336 345 348 345 345 347 344 340 335 332 333 332 330 328 329 330 331 332 331
60 298 334 324 288 47 50 344 330 19 139 254 270 270 350 125 110 49 328 245 259 336 325 305 301 322 331 331 329 331 336 335 331 328 326 324 324 324 323 322 322 321 322 322
86 185 192 241 253 57 295 295 285 103 275 284 269 280 278 295 319 60 63 21 19 347 333 330 305 302 308 305 301 306 315 323 325 322 320 317 316 315 313 313 314 315 316 316
128 233 202 251 285 312 267 271 274 261 259 249 270 279 279 293 302 62 58 29 4 342 331 331 331 323 309 295 291 287 287 300 313 315 316 316 312 309 308 306 306 307 307 308
1 254 79 286 251 257 268 261 260 258 255 253 261 269 298 86 78 56 33 0 334 320 317 321 322 320 316 313 309 301 296 294 292 297 301 307 307 307 305 304 302 300 299 300
170 151 101 260 37 13 298 256 249 254 259 265 268 277 303 120 97 37 353 334 319 333 335 329 325 318 317 315 311 304 298 293 297 299 297 291 288 296 301 301 298 294 294 295
160 128 135 251 62 243 245 15 288 256 282 320 274 178 178 177 330 330 330 319 329 329 321 317 316 314 314 310 306 303 300 299 301 302 298 293 291 288 288 290 291 293 291 287
223 186 242 186 200 291 304 305 47 152 271 197 209 290 150 340 333 312 319 308 319 317 312 309 305 304 304 308 308 304 303 306 306 304 302 299 294 289 287 285 283 281 281 283
276 189 186 151 203 223 240 170 124 114 279 236 122 112 125 297 289 287 297 305 308 307 302 301 301 305 308 311 311 309 309 310 310 310 305 299 291 287 283 281 282 285 282 280
97 347 213 229 239 272 187 148 140 103 261 168 178 210 232 235 265 289 297 301 302 299 300 302 306 311 312 312 312 312 313 311 311 304 300 298 293 290 287 283 279 279 279 278
154 162 208 194 249 269 117 130 184 219 180 225 271 277 285 291 287 283 290 294 300 304 307 310 311 312 313 315 314 312 313 314 313 311 309 307 307 307 307 304 300 291 284 281
223 200 188 182 205 212 216 219 245 255 277 288 292 292 283 277 278 285 288 295 302 305 309 310 311 312 315 316 317 317 318 317 315 312 311 311 312 314 314 312 310 304 296 287
242 241 217 48 251 261 269 273 273 279 286 288 289 281 282 275 281 283 290 297 301 306 310 311 314 315 315 320 321 321 322 321 315 311 310 312 314 315 315 314 310 301 294 290
209 163 226 244 245 262 267 269 275 278 280 280 279 278 272 279 286 288 292 299 303 308 310 314 315 315 318 322 324 326 325 318 315 315 314 313 314 314 312 309 306 302 298 294
227 236 238 244 254 256 271 281 286 279 277 276 269 265 272 283 284 289 294 299 304 309 314 314 316 318 323 325 326 330 325 327 323 318 317 316 314 311 308 306 304 309 297 294